Weather History for Georgetown, SC

Change the Weather History Date:

Saturday, December 28, 2013

  Actual Average Record
Temperature  
Mean Temperature 7 °C -  
Max Temperature 16 °C 15 °C 15 °C (2013)
Min Temperature -1 °C 3 °C -2 °C (2010)
Degree Days  
Heating Degree Days 20    
Moisture  
Dew Point 3 °C    
Average Humidity 78    
Maximum Humidity 100    
Minimum Humidity 36    
Precipitation  
Precipitation 6.60 mm - - ()
Sea Level Pressure  
Sea Level Pressure 1026 hPa    
Wind  
Wind Speed 5 km/h (NE)    
Max Wind Speed 16 km/h    
Max Gust Speed -    
Visibility 15 kilometers    
Events Rain    
Averages and records for this station are not official NWS values.
T = Trace of Precipitation, MM = Missing Value Source: NWS Daily Summary

Daily Weather History Graph

Daily Weather History Graph

Search for Another Location

Airport:

Trip Planner

Search our weather history database for the weather conditions in past years. The results will help you decide how hot, cold, wet, or windy it might be!

Date:

Astronomy

Dec. 28, 2013 Rise Set
Actual Time 7:20 AM EST 5:18 PM EST
Civil Twilight 6:52 AM EST 5:45 PM EST
Nautical Twilight 6:21 AM EST 6:16 PM EST
Astronomical Twilight 5:51 AM EST 6:46 PM EST
Moon 3:01 AM EST (12/28) 2:02 PM EST (12/28)
Length of Visible Light 10h 53m
Length of Day
9h 58m
Waning Crescent, 19% of the Moon is Illuminated
Dec 28
Waning Crescent
Jan 1
New
Jan 7
First Quarter
Jan 15
Full
Jan 24
Last Quarter

Hourly Weather History & Observations

Time (EST) Temp. Windchill Dew Point Humidity Pressure Visibility Wind Dir Wind Speed Gust Speed Precip Events Conditions
12:15 AM 2.0 °C - 1.0 °C 93% 1029.7 hPa 16.1 km Calm Calm - N/A   Clear
12:35 AM 1.0 °C - 0.0 °C 93% 1029.7 hPa 16.1 km Calm Calm - N/A   Clear
12:55 AM 1.0 °C -1.4 °C 0.0 °C 93% 1029.3 hPa 16.1 km North 7.4 km/h / 2.1 m/s - N/A   Clear
1:15 AM 0.0 °C -2.5 °C 0.0 °C 100% 1029.0 hPa 16.1 km NNE 7.4 km/h / 2.1 m/s - N/A   Clear
1:35 AM 0.0 °C -1.8 °C 0.0 °C 100% 1029.0 hPa 16.1 km North 5.6 km/h / 1.5 m/s - N/A   Clear
1:55 AM 0.0 °C - 0.0 °C 100% 1029.0 hPa 16.1 km Calm Calm - N/A   Clear
2:15 AM 0.0 °C - 0.0 °C 100% 1029.0 hPa 16.1 km Calm Calm - N/A   Clear
2:35 AM 0.0 °C - 0.0 °C 100% 1029.0 hPa 16.1 km Calm Calm - N/A   Clear
2:55 AM 0.0 °C - 0.0 °C 100% 1029.0 hPa 16.1 km Calm Calm - N/A   Clear
3:15 AM 0.0 °C - 0.0 °C 100% 1029.0 hPa 16.1 km Calm Calm - N/A   Clear
3:35 AM 1.0 °C - 0.0 °C 93% 1029.0 hPa 16.1 km Calm Calm - N/A   Clear
3:55 AM 0.0 °C - 0.0 °C 100% 1029.0 hPa 16.1 km Calm Calm - N/A   Clear
4:15 AM 0.0 °C -1.8 °C 0.0 °C 100% 1028.3 hPa 16.1 km NNE 5.6 km/h / 1.5 m/s - N/A   Clear
4:35 AM 1.0 °C -0.7 °C 0.0 °C 93% 1028.3 hPa 16.1 km NNE 5.6 km/h / 1.5 m/s - N/A   Clear
4:55 AM 0.0 °C - 0.0 °C 100% 1028.3 hPa 16.1 km Calm Calm - N/A   Clear
5:15 AM 0.0 °C - 0.0 °C 100% 1028.3 hPa 16.1 km Calm Calm - N/A   Clear
5:35 AM 0.0 °C - 0.0 °C 100% 1028.3 hPa 16.1 km Calm Calm - N/A   Clear
5:55 AM 0.0 °C - 0.0 °C 100% 1028.3 hPa 16.1 km Calm Calm - N/A   Clear
6:15 AM 0.0 °C - 0.0 °C 100% 1028.7 hPa 16.1 km Calm Calm - N/A   Clear
6:35 AM -1.0 °C -3.0 °C -1.0 °C 100% 1028.7 hPa 16.1 km North 5.6 km/h / 1.5 m/s - N/A   Clear
6:55 AM 0.0 °C - 0.0 °C 100% 1029.0 hPa 16.1 km Calm Calm - N/A   Clear
7:15 AM 0.0 °C - 0.0 °C 100% 1029.3 hPa 16.1 km Calm Calm - N/A   Clear
7:35 AM -1.0 °C - -1.0 °C 100% 1029.0 hPa 16.1 km Calm Calm - N/A   Clear
7:55 AM 0.0 °C - 0.0 °C 100% 1029.0 hPa 16.1 km Calm Calm - N/A   Clear
8:15 AM 0.0 °C - 0.0 °C 100% 1029.3 hPa 16.1 km Calm Calm - N/A   Clear
8:35 AM 2.0 °C - 2.0 °C 100% 1029.0 hPa 16.1 km Calm Calm - N/A   Clear
8:55 AM 5.0 °C 3.9 °C 3.0 °C 87% 1029.3 hPa 16.1 km NNE 5.6 km/h / 1.5 m/s - N/A   Clear
9:15 AM 6.0 °C 3.7 °C 2.0 °C 76% 1029.0 hPa 16.1 km NNE 11.1 km/h / 3.1 m/s - N/A   Clear
9:35 AM 8.0 °C 5.8 °C 3.0 °C 71% 1029.3 hPa 16.1 km NNE 13.0 km/h / 3.6 m/s - N/A   Clear
9:55 AM 8.0 °C 5.8 °C 2.0 °C 66% 1029.3 hPa 16.1 km NE 13.0 km/h / 3.6 m/s - N/A   Clear
10:15 AM 10.0 °C - 1.0 °C 54% 1029.3 hPa 16.1 km NE 13.0 km/h / 3.6 m/s - N/A   Clear
10:35 AM 10.0 °C - 1.0 °C 54% 1029.3 hPa 16.1 km NE 9.3 km/h / 2.6 m/s - N/A   Clear
10:55 AM 11.0 °C - 1.0 °C 50% 1029.0 hPa 16.1 km NE 11.1 km/h / 3.1 m/s - N/A   Clear
11:15 AM 12.0 °C - 0.0 °C 44% 1029.0 hPa 16.1 km NE 9.3 km/h / 2.6 m/s - N/A   Clear
11:35 AM 13.0 °C - 0.0 °C 41% 1028.3 hPa 16.1 km East 14.8 km/h / 4.1 m/s - N/A   Clear
11:55 AM 13.0 °C - 0.0 °C 41% 1028.0 hPa 16.1 km NE 11.1 km/h / 3.1 m/s - N/A   Clear
12:15 PM 14.0 °C - 0.0 °C 38% 1027.7 hPa 16.1 km ENE 13.0 km/h / 3.6 m/s - N/A   Clear
12:35 PM 14.0 °C - 0.0 °C 38% 1027.7 hPa 16.1 km East 13.0 km/h / 3.6 m/s - N/A   Clear
12:55 PM 15.0 °C - 0.0 °C 36% 1026.6 hPa 16.1 km NE 11.1 km/h / 3.1 m/s - N/A   Clear
1:15 PM 15.0 °C - 1.0 °C 39% 1026.6 hPa 16.1 km East 9.3 km/h / 2.6 m/s - N/A   Clear
1:35 PM 15.0 °C - 3.0 °C 45% 1026.3 hPa 16.1 km ENE 9.3 km/h / 2.6 m/s - N/A   Clear
1:55 PM 15.0 °C - 5.0 °C 51% 1026.0 hPa 16.1 km East 5.6 km/h / 1.5 m/s - N/A   Mostly Cloudy
2:15 PM 15.0 °C - 6.0 °C 55% 1025.6 hPa 16.1 km ENE 7.4 km/h / 2.1 m/s - N/A   Overcast
2:35 PM 15.0 °C - 6.0 °C 55% 1024.9 hPa 16.1 km NE 11.1 km/h / 3.1 m/s - N/A   Overcast
2:55 PM 15.0 °C - 7.0 °C 59% 1024.6 hPa 16.1 km NNE 11.1 km/h / 3.1 m/s - N/A   Overcast
3:15 PM 16.0 °C - 7.0 °C 55% 1024.6 hPa 16.1 km ENE 13.0 km/h / 3.6 m/s - N/A   Scattered Clouds
3:35 PM 15.0 °C - 7.0 °C 59% 1024.3 hPa 16.1 km NE 9.3 km/h / 2.6 m/s - N/A   Mostly Cloudy
3:55 PM 15.0 °C - 8.0 °C 63% 1024.3 hPa 16.1 km NE 7.4 km/h / 2.1 m/s - N/A   Overcast
4:15 PM 14.0 °C - 8.0 °C 67% 1024.3 hPa 16.1 km ENE 11.1 km/h / 3.1 m/s - N/A   Overcast
4:35 PM 13.0 °C - 8.0 °C 72% 1023.9 hPa 16.1 km NE 9.3 km/h / 2.6 m/s - N/A   Overcast
4:55 PM 13.0 °C - 7.0 °C 67% 1023.6 hPa 16.1 km NE 14.8 km/h / 4.1 m/s - N/A   Overcast
5:15 PM 13.0 °C - 7.0 °C 67% 1023.6 hPa 16.1 km ENE 7.4 km/h / 2.1 m/s - N/A   Overcast
5:35 PM 12.0 °C - 8.0 °C 77% 1023.6 hPa 16.1 km ENE 7.4 km/h / 2.1 m/s - N/A   Overcast
5:55 PM 12.0 °C - 8.0 °C 77% 1023.6 hPa 16.1 km NE 5.6 km/h / 1.5 m/s - N/A   Overcast
6:15 PM 12.0 °C - 8.0 °C 77% 1023.6 hPa 16.1 km NE 5.6 km/h / 1.5 m/s - N/A   Mostly Cloudy
6:35 PM 12.0 °C - 8.0 °C 77% 1023.2 hPa 16.1 km NE 7.4 km/h / 2.1 m/s - N/A   Mostly Cloudy
6:55 PM 12.0 °C - 8.0 °C 77% 1023.2 hPa 16.1 km NE 9.3 km/h / 2.6 m/s - N/A   Overcast
7:15 PM 13.0 °C - 8.0 °C 72% 1022.9 hPa 16.1 km NE 7.4 km/h / 2.1 m/s - N/A   Overcast
7:35 PM 12.0 °C - 8.0 °C 77% 1022.9 hPa 16.1 km NE 7.4 km/h / 2.1 m/s - N/A   Overcast
7:55 PM 13.0 °C - 9.0 °C 77% 1022.6 hPa 16.1 km NE 9.3 km/h / 2.6 m/s - N/A   Overcast
8:15 PM 13.0 °C - 8.0 °C 72% 1022.2 hPa 16.1 km ENE 7.4 km/h / 2.1 m/s - N/A   Mostly Cloudy
8:35 PM 13.0 °C - 8.0 °C 72% 1022.2 hPa 16.1 km ENE 13.0 km/h / 3.6 m/s - N/A   Overcast
8:55 PM 13.0 °C - 8.0 °C 72% 1022.2 hPa 16.1 km East 7.4 km/h / 2.1 m/s - N/A   Overcast
9:15 PM 12.0 °C - 8.0 °C 77% 1021.9 hPa 16.1 km ENE 11.1 km/h / 3.1 m/s - N/A   Overcast
9:35 PM 12.0 °C - 9.0 °C 82% 1021.9 hPa 16.1 km East 11.1 km/h / 3.1 m/s - N/A   Overcast
9:55 PM 12.0 °C - 11.0 °C 94% 1021.2 hPa 11.3 km East 11.1 km/h / 3.1 m/s - N/A   Drizzle
10:15 PM 12.0 °C - 12.0 °C 100% 1021.2 hPa 11.3 km NE 9.3 km/h / 2.6 m/s - 0.5 mm   Heavy Drizzle
10:35 PM 11.0 °C - 11.0 °C 100% 1020.5 hPa 6.4 km NE 13.0 km/h / 3.6 m/s - 2.0 mm Rain Rain
10:55 PM - - - N/A% 1020.2 hPa 11.3 km ENE 16.7 km/h / 4.6 m/s - 2.3 mm Rain Rain
11:15 PM - - - N/A% 1019.9 hPa 8.0 km NE 7.4 km/h / 2.1 m/s - 1.5 mm Rain Rain
11:35 PM - - - N/A% 1019.5 hPa 6.4 km ENE 7.4 km/h / 2.1 m/s - 3.8 mm Rain Rain
11:55 PM - - - N/A% 1018.8 hPa 8.0 km Calm Calm - 4.3 mm   Heavy Drizzle